Orbital Elements at Epoch 2459200.5 (2020-Dec-17.0) TDB
Reference: JPL 38 (heliocentric ecliptic J2000)
Element | Value | Uncertainty (1-sigma) | Units |
e | .09352343891542346 | 3.4164e-08 | |
a | 2.231946173214821 | 5.9485e-09 | au |
q | 2.023206891621651 | 7.703e-08 | au |
i | 2.389058722682309 | 3.1881e-06 | deg |
node | 328.1849882597038 | 9.0742e-05 | deg |
peri | 81.85754802813942 | 9.2574e-05 | deg |
M | 114.2879685700972 | 1.7388e-05 | deg |
tp | 2458813.846438794236 (2019-Nov-26.34643879) | 5.8942e-05 | TDB |
period | 1217.934694050504 3.33 | 4.869e-06 1.333e-08 | d yr |
n | .2955823508095845 | 1.1817e-09 | deg/d |
Q | 2.44068545480799 | 6.5048e-09 | au |
|
| | Orbit Determination Parameters
Additional Information
|